• In Portugal
  • List of Countries
  • For 7 days
  • Water Temperature
  • Satellite Maps
  • Weather Map
  • Weather Widgets
  • user-avatar
    Login

    Hourly Weather Tobruk

    Today, 21 May, Monday

    Time Temperature Precipitation Wind Pressure Humidity
    00:00 +35°C° 0 mm 9 mps 754 mmHg 18%
    01:00 +35°C° 0 mm 9 mps 753 mmHg 17%
    02:00 +35°C° 0 mm 8 mps 753 mmHg 16%
    03:00 +35°C° 0 mm 8 mps 753 mmHg 16%
    04:00 +35°C° 0 mm 8 mps 753 mmHg 16%
    05:00 +34°C° 0 mm 8 mps 753 mmHg 16%
    06:00 +35°C° 0 mm 8 mps 753 mmHg 16%
    07:00 +37°C° 0 mm 8 mps 753 mmHg 15%
    08:00 +38°C° 0 mm 9 mps 754 mmHg 13%
    09:00 +40°C° 0 mm 8 mps 754 mmHg 12%
    10:00 +43°C° 0 mm 8 mps 754 mmHg 11%
    11:00 +45°C° 0 mm 8 mps 754 mmHg 9%
    12:00 +46°C° 0 mm 8 mps 754 mmHg 9%
    13:00 +47°C° 0 mm 7 mps 753 mmHg 8%
    14:00 +49°C° 0 mm 7 mps 753 mmHg 7%
    15:00 +44°C° 0 mm 8 mps 753 mmHg 14%
    16:00 +40°C° 0 mm 8 mps 753 mmHg 20%
    17:00 +37°C° 0 mm 8 mps 753 mmHg 26%
    18:00 +34°C° 0 mm 8 mps 754 mmHg 29%
    19:00 +33°C° 0 mm 7 mps 754 mmHg 33%
    20:00 +30°C° 0 mm 7 mps 755 mmHg 36%
    21:00 +30°C° 0 mm 5 mps 755 mmHg 37%
    22:00 +30°C° 0 mm 4 mps 756 mmHg 38%
    23:00 +30°C° 0 mm 3 mps 756 mmHg 38%

    Tomorrow, 22 May, Tuesday

    Time Temperature Precipitation Wind Pressure Humidity
    00:00 +30°C° 0 mm 3 mps 756 mmHg 39%
    01:00 +30°C° 0 mm 2 mps 756 mmHg 39%
    02:00 +29°C° 0 mm 2 mps 756 mmHg 39%
    03:00 +29°C° 0 mm 3 mps 756 mmHg 41%
    04:00 +29°C° 0 mm 3 mps 756 mmHg 42%
    05:00 +28°C° 0 mm 3 mps 756 mmHg 43%
    06:00 +29°C° 0 mm 3 mps 757 mmHg 40%
    07:00 +30°C° 0 mm 3 mps 757 mmHg 37%
    08:00 +30°C° 0 mm 3 mps 757 mmHg 33%
    09:00 +32°C° 0 mm 2 mps 758 mmHg 31%
    10:00 +34°C° 0 mm 2 mps 758 mmHg 28%
    11:00 +35°C° 0 mm 2 mps 758 mmHg 25%
    12:00 +36°C° 0 mm 3 mps 758 mmHg 24%
    13:00 +37°C° 0 mm 3 mps 758 mmHg 22%
    14:00 +38°C° 0 mm 4 mps 758 mmHg 20%
    15:00 +37°C° 0 mm 4 mps 758 mmHg 23%
    16:00 +36°C° 0 mm 4 mps 758 mmHg 25%
    17:00 +35°C° 0 mm 5 mps 758 mmHg 27%
    18:00 +34°C° 0 mm 5 mps 758 mmHg 30%
    19:00 +33°C° 0 mm 5 mps 758 mmHg 33%
    20:00 +32°C° 0 mm 5 mps 758 mmHg 36%
    21:00 +30°C° 0 mm 4 mps 758 mmHg 37%
    22:00 +30°C° 0 mm 4 mps 758 mmHg 39%
    23:00 +29°C° 0 mm 3 mps 759 mmHg 40%

    Day after tomorrow, 23 May, Wednesday

    Time Temperature Precipitation Wind Pressure Humidity
    00:00 +29°C° 0 mm 3 mps 759 mmHg 42%
    01:00 +29°C° 0 mm 3 mps 758 mmHg 43%
    02:00 +28°C° 0 mm 2 mps 758 mmHg 44%
    03:00 +28°C° 0 mm 3 mps 758 mmHg 47%
    04:00 +28°C° 0 mm 3 mps 758 mmHg 49%
    05:00 +28°C° 0 mm 4 mps 758 mmHg 52%
    06:00 +28°C° 0 mm 4 mps 759 mmHg 52%
    07:00 +28°C° 0 mm 3 mps 759 mmHg 52%
    08:00 +28°C° 0 mm 3 mps 760 mmHg 52%
    09:00 +30°C° 0 mm 4 mps 760 mmHg 44%
    10:00 +33°C° 0 mm 4 mps 760 mmHg 36%
    11:00 +35°C° 0 mm 5 mps 760 mmHg 28%
    12:00 +36°C° 0 mm 4 mps 759 mmHg 26%
    13:00 +37°C° 0 mm 3 mps 759 mmHg 24%
    14:00 +37°C° 0 mm 2 mps 758 mmHg 21%
    15:00 +37°C° 0 mm 3 mps 758 mmHg 22%
    16:00 +37°C° 0 mm 4 mps 758 mmHg 23%
    17:00 +37°C° 0 mm 4 mps 757 mmHg 24%
    18:00 +35°C° 0 mm 5 mps 757 mmHg 28%
    19:00 +34°C° 0 mm 5 mps 757 mmHg 32%
    20:00 +33°C° 0 mm 5 mps 757 mmHg 37%
    21:00 +32°C° 0 mm 5 mps 757 mmHg 37%
    22:00 +32°C° 0 mm 5 mps 758 mmHg 38%
    23:00 +30°C° 0 mm 5 mps 758 mmHg 39%

    24 May, Thursday

    Time Temperature Precipitation Wind Pressure Humidity
    00:00 +30°C° 0 mm 5 mps 757 mmHg 39%
    01:00 +30°C° 0 mm 5 mps 757 mmHg 38%
    02:00 +30°C° 0 mm 4 mps 756 mmHg 38%
    03:00 +30°C° 0 mm 4 mps 756 mmHg 37%
    04:00 +29°C° 0 mm 4 mps 756 mmHg 37%
    05:00 +29°C° 0 mm 4 mps 756 mmHg 36%
    06:00 +30°C° 0 mm 4 mps 756 mmHg 34%
    07:00 +32°C° 0 mm 4 mps 756 mmHg 31%
    08:00 +33°C° 0 mm 4 mps 756 mmHg 29%
    09:00 +34°C° 0 mm 5 mps 756 mmHg 30%
    10:00 +35°C° 0 mm 6 mps 756 mmHg 30%
    11:00 +35°C° 0 mm 7 mps 756 mmHg 31%
    12:00 +35°C° 0.1 mm 6 mps 756 mmHg 31%
    13:00 +34°C° 0.1 mm 6 mps 756 mmHg 32%
    14:00 +34°C° 0.1 mm 5 mps 756 mmHg 32%
    15:00 +32°C° 0 mm 6 mps 755 mmHg 39%
    16:00 +30°C° 0 mm 7 mps 755 mmHg 46%
    17:00 +29°C° 0 mm 7 mps 755 mmHg 53%
    18:00 +28°C° 0 mm 7 mps 755 mmHg 58%
    19:00 +27°C° 0 mm 7 mps 755 mmHg 62%
    20:00 +24°C° 0 mm 7 mps 755 mmHg 67%
    21:00 +24°C° 0 mm 7 mps 755 mmHg 71%
    22:00 +23°C° 0 mm 7 mps 755 mmHg 74%
    23:00 +23°C° 0 mm 7 mps 756 mmHg 78%

    25 May, Friday

    Time Temperature Precipitation Wind Pressure Humidity
    00:00 +23°C° 0 mm 7 mps 755 mmHg 80%
    01:00 +22°C° 0 mm 7 mps 755 mmHg 81%
    02:00 +22°C° 0 mm 7 mps 755 mmHg 83%
    03:00 +22°C° 0 mm 8 mps 755 mmHg 83%
    04:00 +22°C° 0 mm 8 mps 755 mmHg 84%
    05:00 +21°C° 0 mm 8 mps 755 mmHg 84%
    06:00 +22°C° 0 mm 8 mps 755 mmHg 80%
    07:00 +22°C° 0 mm 8 mps 755 mmHg 76%
    08:00 +23°C° 0 mm 8 mps 756 mmHg 73%
    09:00 +24°C° 0 mm 8 mps 756 mmHg 67%
    10:00 +26°C° 0 mm 8 mps 756 mmHg 61%
    11:00 +27°C° 0 mm 8 mps 756 mmHg 56%
    12:00 +27°C° 0 mm 8 mps 755 mmHg 54%
    13:00 +28°C° 0 mm 8 mps 755 mmHg 52%
    14:00 +28°C° 0 mm 8 mps 755 mmHg 50%
    15:00 +28°C° 0 mm 8 mps 755 mmHg 53%
    16:00 +27°C° 0 mm 8 mps 754 mmHg 56%
    17:00 +27°C° 0 mm 8 mps 754 mmHg 59%
    18:00 +26°C° 0 mm 8 mps 755 mmHg 63%
    19:00 +24°C° 0 mm 8 mps 755 mmHg 67%
    20:00 +23°C° 0 mm 8 mps 755 mmHg 71%
    21:00 +23°C° 0 mm 8 mps 755 mmHg 72%
    22:00 +23°C° 0 mm 8 mps 755 mmHg 74%
    23:00 +23°C° 0 mm 7 mps 756 mmHg 75%

    26 May, Saturday

    Time Temperature Precipitation Wind Pressure Humidity
    00:00 +22°C° 0 mm 7 mps 755 mmHg 77%
    01:00 +22°C° 0 mm 7 mps 755 mmHg 79%
    02:00 +22°C° 0 mm 7 mps 755 mmHg 81%
    03:00 +22°C° 0 mm 7 mps 755 mmHg 82%
    04:00 +22°C° 0 mm 7 mps 755 mmHg 83%
    05:00 +22°C° 0 mm 7 mps 755 mmHg 84%
    06:00 +22°C° 0 mm 7 mps 755 mmHg 81%
    07:00 +23°C° 0 mm 7 mps 756 mmHg 78%
    08:00 +23°C° 0 mm 7 mps 756 mmHg 74%
    09:00 +24°C° 0 mm 7 mps 756 mmHg 68%
    10:00 +26°C° 0 mm 7 mps 756 mmHg 62%
    11:00 +27°C° 0 mm 7 mps 756 mmHg 56%
    12:00 +28°C° 0 mm 7 mps 756 mmHg 54%
    13:00 +28°C° 0 mm 7 mps 756 mmHg 52%
    14:00 +29°C° 0 mm 7 mps 755 mmHg 50%
    15:00 +28°C° 0 mm 7 mps 755 mmHg 52%
    16:00 +28°C° 0 mm 7 mps 755 mmHg 55%
    17:00 +27°C° 0 mm 7 mps 755 mmHg 57%
    18:00 +26°C° 0 mm 7 mps 755 mmHg 63%
    19:00 +24°C° 0 mm 7 mps 755 mmHg 68%
    20:00 +23°C° 0 mm 7 mps 756 mmHg 74%
    21:00 +23°C° 0 mm 7 mps 756 mmHg 74%
    22:00 +23°C° 0 mm 7 mps 756 mmHg 75%
    23:00 +23°C° 0 mm 7 mps 756 mmHg 75%
    Show more